Time,TemperatureF,DewpointF,PressureIn,WindDirection,WindDirectionDegrees,WindSpeedMPH,WindSpeedGustMPH,Humidity,HourlyPrecipIn,Conditions,Clouds,dailyrainin,SoftwareType,DateUTC
2013-05-09 00:00:00,59.0,34.0,29.99,SSE,150,5.0,-999.0,39,-99.99,,,-99.99,,2013-05-09 04:00:00,
2013-05-09 00:22:00,59.0,34.0,29.99,SSE,150,5.0,-999.0,39,-99.99,,,-99.99,,2013-05-09 04:22:00,
2013-05-09 00:32:00,59.0,34.0,29.99,SSE,150,5.0,-999.0,39,-99.99,,,-99.99,,2013-05-09 04:32:00,
2013-05-09 00:42:00,59.0,34.0,29.99,SSE,150,5.0,-999.0,39,-99.99,,,-99.99,,2013-05-09 04:42:00,
2013-05-09 00:52:00,59.0,34.0,29.99,SSE,150,5.0,-999.0,39,-99.99,,,-99.99,,2013-05-09 04:52:00,
2013-05-09 01:00:00,63.0,43.0,29.97,South,190,3.0,-999.0,48,-99.99,,,-99.99,,2013-05-09 05:00:00,
2013-05-09 01:21:00,63.0,43.0,29.97,South,190,3.0,-999.0,48,-99.99,,,-99.99,,2013-05-09 05:21:00,
2013-05-09 01:32:00,63.0,43.0,29.97,South,190,3.0,-999.0,48,-99.99,,,-99.99,,2013-05-09 05:32:00,
2013-05-09 01:42:00,63.0,43.0,29.97,South,190,3.0,-999.0,48,-99.99,,,-99.99,,2013-05-09 05:42:00,
2013-05-09 01:51:00,63.0,43.0,29.97,South,190,3.0,-999.0,48,-99.99,,,-99.99,,2013-05-09 05:51:00,
2013-05-09 02:00:00,54.0,40.0,29.95,WSW,240,3.0,-999.0,57,-99.99,,,-99.99,,2013-05-09 06:00:00,
2013-05-09 02:21:00,54.0,40.0,29.95,WSW,240,3.0,-999.0,57,-99.99,,,-99.99,,2013-05-09 06:21:00,
2013-05-09 02:32:00,54.0,40.0,29.95,WSW,240,3.0,-999.0,57,-99.99,,,-99.99,,2013-05-09 06:32:00,
2013-05-09 02:41:00,54.0,40.0,29.95,WSW,240,3.0,-999.0,57,-99.99,,,-99.99,,2013-05-09 06:41:00,
2013-05-09 02:52:00,54.0,40.0,29.95,WSW,240,3.0,-999.0,57,-99.99,,,-99.99,,2013-05-09 06:52:00,
2013-05-09 03:21:00,52.0,32.0,29.95,West,260,3.0,-999.0,45,-99.99,,,-99.99,,2013-05-09 07:21:00,
2013-05-09 03:31:00,52.0,32.0,29.95,West,260,3.0,-999.0,45,-99.99,,,-99.99,,2013-05-09 07:31:00,
2013-05-09 04:00:00,51.0,33.0,29.93,WNW,290,2.0,-999.0,50,-99.99,,,-99.99,,2013-05-09 08:00:00,
2013-05-09 04:21:00,51.0,33.0,29.93,WNW,290,2.0,-999.0,50,-99.99,,,-99.99,,2013-05-09 08:21:00,
2013-05-09 04:31:00,51.0,33.0,29.93,WNW,290,2.0,-999.0,50,-99.99,,,-99.99,,2013-05-09 08:31:00,
2013-05-09 04:41:00,51.0,33.0,29.93,WNW,290,2.0,-999.0,50,-99.99,,,-99.99,,2013-05-09 08:41:00,
2013-05-09 04:51:00,51.0,33.0,29.93,WNW,290,2.0,-999.0,50,-99.99,,,-99.99,,2013-05-09 08:51:00,
2013-05-09 05:00:00,51.0,40.0,29.93,West,270,7.0,-999.0,65,-99.99,,,-99.99,,2013-05-09 09:00:00,
2013-05-09 05:21:00,51.0,40.0,29.93,West,270,7.0,-999.0,65,-99.99,,,-99.99,,2013-05-09 09:21:00,
2013-05-09 05:32:00,51.0,40.0,29.93,West,270,7.0,-999.0,65,-99.99,,,-99.99,,2013-05-09 09:32:00,
2013-05-09 05:42:00,51.0,40.0,29.93,West,270,7.0,-999.0,65,-99.99,,,-99.99,,2013-05-09 09:42:00,
2013-05-09 05:52:00,51.0,40.0,29.93,West,270,7.0,-999.0,65,-99.99,,,-99.99,,2013-05-09 09:52:00,
2013-05-09 06:00:00,49.0,40.0,29.93,WSW,250,3.0,-999.0,70,-99.99,,,-99.99,,2013-05-09 10:00:00,
2013-05-09 06:22:00,49.0,40.0,29.93,WSW,250,3.0,-999.0,70,-99.99,,,-99.99,,2013-05-09 10:22:00,
2013-05-09 06:32:00,49.0,40.0,29.93,WSW,250,3.0,-999.0,70,-99.99,,,-99.99,,2013-05-09 10:32:00,
2013-05-09 06:41:00,49.0,40.0,29.93,WSW,250,3.0,-999.0,70,-99.99,,,-99.99,,2013-05-09 10:41:00,
2013-05-09 06:52:00,49.0,40.0,29.93,WSW,250,3.0,-999.0,70,-99.99,,,-99.99,,2013-05-09 10:52:00,
2013-05-09 07:00:00,46.0,38.0,29.93,SE,140,3.0,-999.0,71,-99.99,,,-99.99,,2013-05-09 11:00:00,
2013-05-09 07:22:00,46.0,38.0,29.93,SE,140,3.0,-999.0,71,-99.99,,,-99.99,,2013-05-09 11:22:00,
2013-05-09 07:32:00,46.0,38.0,29.93,SE,140,3.0,-999.0,71,-99.99,,,-99.99,,2013-05-09 11:32:00,
2013-05-09 07:41:00,46.0,38.0,29.93,SE,140,3.0,-999.0,71,-99.99,,,-99.99,,2013-05-09 11:41:00,
2013-05-09 07:51:00,46.0,38.0,29.93,SE,140,3.0,-999.0,71,-99.99,,,-99.99,,2013-05-09 11:51:00,
2013-05-09 08:00:00,49.0,39.0,29.94,South,180,5.0,-999.0,68,-99.99,,,-99.99,,2013-05-09 12:00:00,
2013-05-09 08:21:00,49.0,39.0,29.94,South,180,5.0,-999.0,68,-99.99,,,-99.99,,2013-05-09 12:21:00,
2013-05-09 08:31:00,49.0,39.0,29.94,South,180,5.0,-999.0,68,-99.99,,,-99.99,,2013-05-09 12:31:00,
2013-05-09 08:42:00,49.0,39.0,29.94,South,180,5.0,-999.0,68,-99.99,,,-99.99,,2013-05-09 12:42:00,
2013-05-09 08:51:00,49.0,39.0,29.94,South,180,5.0,-999.0,68,-99.99,,,-99.99,,2013-05-09 12:51:00,
2013-05-09 09:00:00,47.0,40.0,29.96,WSW,240,3.0,-999.0,75,-99.99,,,-99.99,,2013-05-09 13:00:00,
2013-05-09 09:21:00,47.0,40.0,29.96,WSW,240,3.0,-999.0,75,-99.99,,,-99.99,,2013-05-09 13:21:00,
2013-05-09 09:31:00,47.0,40.0,29.96,WSW,240,3.0,-999.0,75,-99.99,,,-99.99,,2013-05-09 13:31:00,
2013-05-09 09:42:00,47.0,40.0,29.96,WSW,240,3.0,-999.0,75,-99.99,,,-99.99,,2013-05-09 13:42:00,
2013-05-09 09:52:00,47.0,40.0,29.96,WSW,240,3.0,-999.0,75,-99.99,,,-99.99,,2013-05-09 13:52:00,
2013-05-09 10:00:00,47.0,38.0,29.95,SW,230,14.0,-999.0,72,-99.99,,,-99.99,,2013-05-09 14:00:00,
2013-05-09 10:21:00,47.0,38.0,29.95,SW,230,14.0,-999.0,72,-99.99,,,-99.99,,2013-05-09 14:21:00,
2013-05-09 10:32:00,47.0,38.0,29.95,SW,230,14.0,-999.0,72,-99.99,,,-99.99,,2013-05-09 14:32:00,
2013-05-09 10:41:00,47.0,38.0,29.95,SW,230,14.0,-999.0,72,-99.99,,,-99.99,,2013-05-09 14:41:00,
2013-05-09 10:52:00,47.0,38.0,29.95,SW,230,14.0,-999.0,72,-99.99,,,-99.99,,2013-05-09 14:52:00,
2013-05-09 11:00:00,41.0,39.0,29.95,WSW,250,9.0,-999.0,92,-99.99,,,-99.99,,2013-05-09 15:00:00,
2013-05-09 11:21:00,41.0,39.0,29.95,WSW,250,9.0,-999.0,92,-99.99,,,-99.99,,2013-05-09 15:21:00,
2013-05-09 11:32:00,41.0,39.0,29.95,WSW,250,9.0,-999.0,92,-99.99,,,-99.99,,2013-05-09 15:32:00,
2013-05-09 11:42:00,41.0,39.0,29.95,WSW,250,9.0,-999.0,92,-99.99,,,-99.99,,2013-05-09 15:42:00,
2013-05-09 11:52:00,41.0,39.0,29.95,WSW,250,9.0,-999.0,92,-99.99,,,-99.99,,2013-05-09 15:52:00,
2013-05-09 12:00:00,46.0,42.0,29.96,West,280,6.0,-999.0,85,-99.99,,,-99.99,,2013-05-09 16:00:00,
2013-05-09 12:22:00,46.0,42.0,29.96,West,280,6.0,-999.0,85,-99.99,,,-99.99,,2013-05-09 16:22:00,
2013-05-09 12:32:00,46.0,42.0,29.96,West,280,6.0,-999.0,85,-99.99,,,-99.99,,2013-05-09 16:32:00,
2013-05-09 12:41:00,46.0,42.0,29.96,West,280,6.0,-999.0,85,-99.99,,,-99.99,,2013-05-09 16:41:00,
2013-05-09 12:52:00,46.0,42.0,29.96,West,280,6.0,-999.0,85,-99.99,,,-99.99,,2013-05-09 16:52:00,
2013-05-09 13:00:00,53.0,44.0,29.96,WNW,300,13.0,-999.0,71,-99.99,,,-99.99,,2013-05-09 17:00:00,
2013-05-09 13:21:00,53.0,44.0,29.96,WNW,300,13.0,-999.0,71,-99.99,,,-99.99,,2013-05-09 17:21:00,
2013-05-09 13:32:00,53.0,44.0,29.96,WNW,300,13.0,-999.0,71,-99.99,,,-99.99,,2013-05-09 17:32:00,
2013-05-09 13:41:00,53.0,44.0,29.96,WNW,300,13.0,-999.0,71,-99.99,,,-99.99,,2013-05-09 17:41:00,
2013-05-09 13:54:00,53.0,44.0,29.96,WNW,300,13.0,-999.0,71,-99.99,,,-99.99,,2013-05-09 17:54:00,
2013-05-09 14:00:00,63.0,45.0,29.95,North,350,8.0,-999.0,52,-99.99,,,-99.99,,2013-05-09 18:00:00,
2013-05-09 14:21:00,63.0,45.0,29.95,North,350,8.0,-999.0,52,-99.99,,,-99.99,,2013-05-09 18:21:00,
2013-05-09 14:31:00,63.0,45.0,29.95,North,350,8.0,-999.0,52,-99.99,,,-99.99,,2013-05-09 18:31:00,
2013-05-09 14:41:00,63.0,45.0,29.95,North,350,8.0,-999.0,52,-99.99,,,-99.99,,2013-05-09 18:41:00,
2013-05-09 14:52:00,63.0,45.0,29.95,North,350,8.0,-999.0,52,-99.99,,,-99.99,,2013-05-09 18:52:00,
2013-05-09 15:00:00,66.0,44.0,29.94,North,10,8.0,-999.0,45,-99.99,,,-99.99,,2013-05-09 19:00:00,
2013-05-09 15:21:00,66.0,44.0,29.94,North,10,8.0,-999.0,45,-99.99,,,-99.99,,2013-05-09 19:21:00,
2013-05-09 15:31:00,66.0,44.0,29.94,North,10,8.0,-999.0,45,-99.99,,,-99.99,,2013-05-09 19:31:00,
2013-05-09 15:41:00,66.0,44.0,29.94,North,10,8.0,-999.0,45,-99.99,,,-99.99,,2013-05-09 19:41:00,
2013-05-09 15:52:00,66.0,44.0,29.94,North,10,8.0,-999.0,45,-99.99,,,-99.99,,2013-05-09 19:52:00,
2013-05-09 16:00:00,67.0,41.0,29.94,North,360,10.0,-999.0,38,-99.99,,,-99.99,,2013-05-09 20:00:00,
2013-05-09 16:21:00,67.0,41.0,29.94,North,360,10.0,-999.0,38,-99.99,,,-99.99,,2013-05-09 20:21:00,
2013-05-09 16:31:00,67.0,41.0,29.94,North,360,10.0,-999.0,38,-99.99,,,-99.99,,2013-05-09 20:31:00,
2013-05-09 16:42:00,67.0,41.0,29.94,North,360,10.0,-999.0,38,-99.99,,,-99.99,,2013-05-09 20:42:00,
2013-05-09 16:52:00,67.0,41.0,29.94,North,360,10.0,-999.0,38,-99.99,,,-99.99,,2013-05-09 20:52:00,
2013-05-09 17:00:00,67.0,42.0,29.95,North,360,9.0,-999.0,40,-99.99,,,-99.99,,2013-05-09 21:00:00,
2013-05-09 17:22:00,67.0,42.0,29.95,North,360,9.0,-999.0,40,-99.99,,,-99.99,,2013-05-09 21:22:00,
2013-05-09 17:32:00,67.0,42.0,29.95,North,360,9.0,-999.0,40,-99.99,,,-99.99,,2013-05-09 21:32:00,
2013-05-09 17:42:00,67.0,42.0,29.95,North,360,9.0,-999.0,40,-99.99,,,-99.99,,2013-05-09 21:42:00,
2013-05-09 17:52:00,67.0,42.0,29.95,North,360,9.0,-999.0,40,-99.99,,,-99.99,,2013-05-09 21:52:00,
2013-05-09 18:00:00,65.0,42.0,29.95,North,10,11.0,-999.0,43,-99.99,,,-99.99,,2013-05-09 22:00:00,
2013-05-09 18:22:00,65.0,42.0,29.95,North,10,11.0,-999.0,43,-99.99,,,-99.99,,2013-05-09 22:22:00,
2013-05-09 18:32:00,65.0,42.0,29.95,North,10,11.0,-999.0,43,-99.99,,,-99.99,,2013-05-09 22:32:00,
2013-05-09 18:42:00,65.0,42.0,29.95,North,10,11.0,-999.0,43,-99.99,,,-99.99,,2013-05-09 22:42:00,
2013-05-09 18:52:00,65.0,42.0,29.95,North,10,11.0,-999.0,43,-99.99,,,-99.99,,2013-05-09 22:52:00,
2013-05-09 19:00:00,63.0,44.0,29.96,North,360,13.0,-999.0,49,-99.99,,,-99.99,,2013-05-09 23:00:00,
2013-05-09 19:21:00,63.0,44.0,29.96,North,360,13.0,-999.0,49,-99.99,,,-99.99,,2013-05-09 23:21:00,
2013-05-09 19:32:00,63.0,44.0,29.96,North,360,13.0,-999.0,49,-99.99,,,-99.99,,2013-05-09 23:32:00,
2013-05-09 19:42:00,63.0,44.0,29.96,North,360,13.0,-999.0,49,-99.99,,,-99.99,,2013-05-09 23:42:00,
2013-05-09 19:52:00,63.0,44.0,29.96,North,360,13.0,-999.0,49,-99.99,,,-99.99,,2013-05-09 23:52:00,
2013-05-09 20:00:00,55.0,44.0,29.98,NNE,30,17.0,-999.0,67,-99.99,,,-99.99,,2013-05-10 00:00:00,
2013-05-09 20:21:00,55.0,44.0,29.98,NNE,30,17.0,-999.0,67,-99.99,,,-99.99,,2013-05-10 00:21:00,
2013-05-09 20:31:00,55.0,44.0,29.98,NNE,30,17.0,-999.0,67,-99.99,,,-99.99,,2013-05-10 00:31:00,
2013-05-09 20:42:00,55.0,44.0,29.98,NNE,30,17.0,-999.0,67,-99.99,,,-99.99,,2013-05-10 00:42:00,
2013-05-09 20:51:00,55.0,44.0,29.98,NNE,30,17.0,-999.0,67,-99.99,,,-99.99,,2013-05-10 00:51:00,
2013-05-09 21:00:00,52.0,41.0,29.99,NE,40,20.0,-999.0,66,-99.99,,,-99.99,,2013-05-10 01:00:00,
2013-05-09 21:21:00,52.0,41.0,29.99,NE,40,20.0,-999.0,66,-99.99,,,-99.99,,2013-05-10 01:21:00,
2013-05-09 21:31:00,52.0,41.0,29.99,NE,40,20.0,-999.0,66,-99.99,,,-99.99,,2013-05-10 01:31:00,
2013-05-09 21:41:00,52.0,41.0,29.99,NE,40,20.0,-999.0,66,-99.99,,,-99.99,,2013-05-10 01:41:00,
2013-05-09 21:52:00,52.0,41.0,29.99,NE,40,20.0,-999.0,66,-99.99,,,-99.99,,2013-05-10 01:52:00,
2013-05-09 22:00:00,51.0,41.0,30.01,NE,50,15.0,-999.0,67,-99.99,,,-99.99,,2013-05-10 02:00:00,
2013-05-09 22:21:00,51.0,41.0,30.01,NE,50,15.0,-999.0,67,-99.99,,,-99.99,,2013-05-10 02:21:00,
2013-05-09 22:31:00,51.0,41.0,30.01,NE,50,15.0,-999.0,67,-99.99,,,-99.99,,2013-05-10 02:31:00,
2013-05-09 22:42:00,51.0,41.0,30.01,NE,50,15.0,-999.0,67,-99.99,,,-99.99,,2013-05-10 02:42:00,
2013-05-09 22:52:00,51.0,41.0,30.01,NE,50,15.0,-999.0,67,-99.99,,,-99.99,,2013-05-10 02:52:00,
2013-05-09 23:00:00,46.0,40.0,30.03,ENE,60,14.0,-999.0,79,-99.99,,,-99.99,,2013-05-10 03:00:00,
2013-05-09 23:21:00,46.0,40.0,30.03,ENE,60,14.0,-999.0,79,-99.99,,,-99.99,,2013-05-10 03:21:00,
2013-05-09 23:32:00,46.0,40.0,30.03,ENE,60,14.0,-999.0,79,-99.99,,,-99.99,,2013-05-10 03:32:00,
2013-05-09 23:42:00,46.0,40.0,30.03,ENE,60,14.0,-999.0,79,-99.99,,,-99.99,,2013-05-10 03:42:00,
2013-05-09 23:52:00,46.0,40.0,30.03,ENE,60,14.0,-999.0,79,-99.99,,,-99.99,,2013-05-10 03:52:00,